Regional Weather Roundup
Issued by NWS

Home | Current Version | Previous Version | Text Only | Print | Product List | Glossary Off
Versions: 1 2 3 4 5 6 7 8 9 10 11 12 13 14 15 16 17 18 19 20 21 22 23 24 25 26 27 28 29 30 31 32 33 34 35 36 37 38 39 40 41 42 43 44 45 46 47 48 49 50

333
ASUS43 KDMX 161506
RWRIA

WEATHER ROUNDUP FOR IOWA
NATIONAL WEATHER SERVICE DES MOINES IA
1000 AM CDT MON OCT 16 2017

NOTE: "FAIR" INDICATES FEW OR NO CLOUDS BELOW 12,000 FEET WITH NO
SIGNIFICANT WEATHER AND/OR OBSTRUCTIONS TO VISIBILITY.

* - THESE STATIONS ARE NOT NWS STATIONS...THUS NOT UNDER NWS
QUALITY CONTROL.  THEY ALSO DO NOT REPORT WEATHER SUCH
AS PRECIPITATION OR FOG.

IAZ001>003-012>014-020>022-031>034-043>046-161600-
   NORTHWEST IOWA

CITY           SKY/WX    TMP DP  RH WIND       PRES   REMARKS
CARROLL *      SUNNY     57  43  58 SW8       30.31S
CHEROKEE *     SUNNY     45  41  85 S5        30.29S
DENISON *      SUNNY     48  41  76 CALM      30.33S
LE MARS *      SUNNY     48  39  71 S7        30.27F
ORANGE CITY *  SUNNY     48  41  76 S8        30.26F
SHELDON *      SUNNY     48  37  66 S7        30.25S
SIOUX CITY     SUNNY     46  40  79 SE6       30.28F
SPENCER        SUNNY     50  38  63 SW6       30.28R
STORM LAKE *   SUNNY     52  36  54 SW9       30.29S
$$

IAZ055>058-069>071-079>083-090>094-161600-
   SOUTHWEST IOWA

CITY           SKY/WX    TMP DP  RH WIND       PRES   REMARKS
ATLANTIC *     SUNNY     46  41  81 S5        30.34F
AUDUBON *      SUNNY     52  43  71 S6        30.34S
CLARINDA *     SUNNY     48  45  87 S5        30.38F
COUNCIL BLFS * SUNNY     54  41  62 S6        30.33S
CRESTON *      SUNNY     52  41  66 W6        30.37R
HARLAN  *      SUNNY     46  41  81 VRB3      30.37S
LAMONI         SUNNY     54  39  57 SW5       30.36S
RED OAK *      SUNNY     50  43  76 S5        30.35F
SHENANDOAH *   SUNNY     55  45  67 CALM      30.36S
$$

IAZ047>049-059>061-072>074-084-161600-
   CENTRAL IOWA

CITY           SKY/WX    TMP DP  RH WIND       PRES   REMARKS
AMES           SUNNY     49  41  74 CALM      30.32S
ANKENY *       SUNNY     50  39  66 CALM      30.35S
BOONE *        SUNNY     50  41  71 SW6       30.31S
CHARITON *     SUNNY     52  39  62 W7        30.35R
DES MOINES     SUNNY     51  41  68 SW5       30.34R
GRINNELL*      SUNNY     48  40  72 W3        30.35R
KNOXVILLE *    SUNNY     52  39  62 W7        30.33S
MARSHALLTOWN   SUNNY     48  41  76 SW5       30.32R
NEWTON *       SUNNY     46  41  81 W6        30.34R
PELLA *        SUNNY     49  39  66 W5        30.35S
PERRY *          N/A     55  42  62 S5        30.33S
$$

IAZ004>006-015-016-023>025-035-036-161600-
   NORTH CENTRAL IOWA

CITY           SKY/WX    TMP DP  RH WIND       PRES   REMARKS
ALGONA *       SUNNY     48  41  76 S5        30.28S
CLARION *      SUNNY     46  41  81 CALM      30.30S
ESTHERVILLE    SUNNY     49  38  65 S7        30.27R
FORT DODGE *   SUNNY     48  40  73 SW5       30.31S
MASON CITY     SUNNY     46  38  73 S5        30.30S
FOREST CITY *    N/A     45  37  76 SW3       30.29S
WEBSTER CITY * SUNNY     50  39  66 SW3       30.29S
IOWA FALLS *     N/A     49  40  73 W5        30.32R
$$

IAZ007>011-017>019-026>030-037>042-050>054-066-161600-
   NORTHEAST IOWA

CITY           SKY/WX    TMP DP  RH WIND       PRES   REMARKS
CEDAR RAPIDS   SUNNY     51  41  68 CALM      30.32S
CHARLES CITY * SUNNY     46  39  76 S5        30.29S
CLINTON *      SUNNY     48  41  76 W3        30.34R
DECORAH *      SUNNY     48  41  76 SW6       30.28S
DUBUQUE        SUNNY     48  42  80 SW5       30.32R
MONTICELLO *   SUNNY     50  43  76 CALM      30.32S
OELWEIN *      SUNNY     50  41  71 SW3       30.31S
WATERLOO       SUNNY     47  39  74 SW3       30.31R
$$

IAZ064-065-067-068-078-161600-
   EAST CENTRAL IOWA

CITY           SKY/WX    TMP DP  RH WIND       PRES   REMARKS
DAVENPORT      SUNNY     48  41  76 W5        30.35R
IOWA CITY      SUNNY     50  41  71 CALM      30.35S
MUSCATINE *    SUNNY     50  41  71 CALM      30.35S
QUAD CITIES    SUNNY     51  41  68 W6        30.34R
$$

IAZ062-063-075>077-085>089-095>099-161600-
   SOUTHEAST IOWA

CITY           SKY/WX    TMP DP  RH WIND       PRES   REMARKS
BURLINGTON     SUNNY     50  42  74 W5        30.35S
FAIRFIELD *    SUNNY     50  41  71 W5        30.34S
FORT MADISON * SUNNY     50  43  76 SW3       30.36S
KEOKUK *       SUNNY     50  41  71 SW6       30.36S
OSKALOOSA *      N/A     49  40  70 W6        30.35R
OTTUMWA        SUNNY     50  41  71 W7        30.35R
WASHINGTON *   SUNNY     50  43  76 CALM      30.36R
$$

ABBREVIATIONS USED IN REMARKS
   TC - TEMPERATURES IN CELSIUS
  WCI - WIND CHILL INDEX
   HX - HEAT INDEX
  VSB - VISIBILITY
$$





USA.gov is the U.S. government's official web portal to all federal, state and local government web resources and services.